User: anonymous   Login
Location: ????????
(54.9045°N, 39.1041°E)
Time: 18:03:35
(UTC+00:00)
Language:

Sich 1 - Orbit

View from above orbital plane
View from above orbital plane
View from above satellite
View from above satellite

Ground track
Ground track

The orbit data is extracted from the following two-line orbital elements,

1 23657U 95046A   24171.61967668  .00001814  00000-0  18516-3 0  9999
2 23657  82.5258  13.1708 0018975 236.3131 123.6279 14.89981527557443
Epoch (UTC): 19 June 2024 14:52:20
Eccentricity: 0.0018975
inclination: 82.5258°
perigee height: 585 km
apogee height: 611 km
right ascension of ascending node: 13.1708°
argument of perigee: 236.3131°
revolutions per day: 14.89981527
mean anomaly at epoch: 123.6279°
orbit number at epoch: 55744

The dashed part of the orbit path shows where the satellite is in the earth's shadow,  

DLR